#timestamp,LO_Frequency,Hit 
1502002815.4,286046996.6,N
1502002835.3,286046996.5,N
1502002855.1,286046997.6,N
1502002856.0,286046997.6,N
1502002875.8,286046997.9,N
1502002895.7,286046997.4,N
1502002915.5,286046995.4,N
1502002935.3,286046995.6,N
1502002955.2,286046997.4,N
1502002975.9,286046998.0,N
1502002995.7,286046997.3,N
1502003015.5,286046997.0,N
1502003035.4,286046997.3,N
1502003055.2,286046995.3,N
1502003075.0,286046996.0,N
1502003075.9,286046996.0,N
1502003095.8,286046995.8,N
1502003115.6,286046995.2,N
1502003135.4,286046997.9,N
1502003155.3,286046995.6,N
1502003175.1,286046993.3,N
1502003176.0,286046993.3,N
1502003195.8,286046996.3,N
1502003215.7,286046996.4,N
1502003235.5,286046995.5,N
1502003255.3,286046996.0,N
1502003275.2,286046995.7,N
1502003295.9,286046996.2,N
1502003315.7,286046995.2,N
1502003335.5,286046997.4,N
1502003355.4,286046997.7,N
1502003375.2,286046997.9,N
1502003395.0,286046997.7,N
1502003395.9,286046997.7,N
1502003415.8,286046997.1,N
1502003435.6,286046995.2,N
1502003455.4,286046995.1,N
1502003475.3,286046996.2,N
1502003495.1,286046995.5,N
1502003496.0,286046995.5,N
1502003515.8,286046995.7,N
1502003535.7,286046993.4,N
1502003555.5,286046993.6,N
1502003575.3,286046995.8,N
1502003595.2,286046998.0,N
1502003615.9,286046994.9,N
1502003635.7,286046997.9,N
1502003655.5,286046997.4,N
1502003675.4,286046995.3,N
1502003695.2,286046997.4,N
1502003715.0,286046995.1,N
1502003715.9,286046995.1,N
1502003735.8,286046998.0,N
1502003755.6,286046996.0,N
1502003775.4,286046995.9,N
1502003795.3,286046995.4,N
1502003815.1,286046993.7,N
1502003835.8,286046995.3,N
1502003855.7,286046995.4,N
1502003875.5,286046996.4,N
1502003895.3,286046996.0,N
1502003915.2,286046996.0,N
1502003935.9,286046995.3,N
1502003955.7,286046995.7,N
1502003975.5,286046996.0,N
1502003995.4,286046998.0,N
1502004015.2,286046995.2,N
1502004035.0,286046995.6,N
1502004035.9,286046995.6,N
1502004055.8,286046994.9,N
1502004075.6,286046996.1,N
1502004095.4,286046993.8,N
1502004115.3,286046993.6,N
1502004135.1,286046995.2,N
1502004155.8,286046996.1,N
1502004175.7,286046995.9,N
1502004195.5,286046996.2,N
1502004215.3,286046996.4,N
1502004235.2,286046996.0,N
1502004255.9,286046994.4,N
1502004275.7,286046995.3,N
1502004295.6,286046993.7,N
1502004315.4,286046994.9,N
1502004335.2,286046994.9,N
1502004355.0,286046995.6,N
1502004355.9,286046995.6,N
1502004375.8,286046995.8,N
1502004395.6,286046995.7,N
1502004415.4,286046993.8,N
1502004435.3,286046995.2,N
1502004455.1,286046996.1,N
1502004475.8,286046996.3,N
1502004495.7,286046993.7,N
1502004515.5,286046996.4,N
1502004535.3,286046994.0,N
1502004555.2,286046994.2,N
1502004575.9,286046994.2,N
1502004595.7,286046993.9,N
1502004615.6,286046996.3,N
1502004635.4,286046993.5,N
1502004655.2,286046995.1,N
1502004675.0,286046996.2,N
1502004676.0,286046996.2,N
1502004695.8,286046995.8,N
1502004715.6,286046994.1,N
1502004735.4,286046993.7,N
1502004755.3,286046991.8,N
1502004775.1,286046992.0,N
1502004795.8,286046993.5,N
1502004815.7,286046994.1,N
1502004835.5,286046994.3,N
1502004855.3,286046994.4,N
1502004875.2,286046991.8,N
1502004895.9,286046994.4,N
1502004915.7,286046992.1,N
1502004935.6,286046994.8,N
1502004955.4,286046994.7,N
1502004975.2,286046994.4,N
1502004995.1,286046992.6,N
1502004996.0,286046992.6,N
1502005015.8,286046992.4,N
1502005035.6,286046991.8,N
1502005055.5,286046992.6,N
1502005075.3,286046992.7,N
1502005095.1,286046991.9,N
1502005115.8,286046994.2,N
1502005135.7,286046992.7,N
1502005155.5,286046994.6,N
1502005175.3,286046994.3,N
1502005195.2,286046993.8,N
1502005215.9,286046992.4,N
1502005235.7,286046992.4,N
1502005255.6,286046991.8,N
1502005275.4,286046992.2,N
1502005295.2,286046991.9,N
1502005315.1,286046994.4,N
1502005316.0,286046994.4,N
1502005335.8,286046992.6,N
1502005355.6,286046992.4,N
1502005375.4,286046993.2,N
1502005395.3,286046993.1,N
1502005415.1,286046990.4,N
1502005435.8,286046990.2,N
1502005455.7,286046990.3,N
1502005475.5,286046990.2,N
1502005495.3,286046991.9,N
1502005515.2,286046990.3,N
1502005535.9,286046992.8,N
1502005555.7,286046992.7,N
1502005575.6,286046992.0,N
1502005595.4,286046994.3,N
1502005615.2,286046992.5,N
1502005635.1,286046990.1,N
1502005636.0,286046990.1,N
1502005655.8,286046990.2,N
1502005675.6,286046990.4,N
1502005695.4,286046992.7,N
1502005715.3,286046992.0,N
1502005735.1,286046991.9,N
1502005755.8,286046992.7,N
1502005775.7,286046994.8,N
1502005795.5,286046992.4,N
1502005815.3,286046990.8,N
1502005835.2,286046991.4,N
1502005855.9,286046990.1,N
1502005875.7,286046991.3,N
1502005895.6,286046988.5,N
1502005915.4,286046988.9,N
1502005935.2,286046988.7,N
1502005955.1,286046991.2,N
1502005956.0,286046991.2,N
1502005975.8,286046989.1,N
1502005995.6,286046993.0,N
1502006015.4,286046990.9,N
1502006035.3,286046990.4,N
1502006055.1,286046988.9,N
1502006075.8,286046990.9,N
1502006095.7,286046991.3,N
1502006115.5,286046989.1,N
1502006135.3,286046991.3,N
1502006155.2,286046989.4,N
1502006175.9,286046989.3,N
1502006195.7,286046988.5,N
1502006215.6,286046988.8,N
1502006235.4,286046991.5,N
1502006255.2,286046990.8,N
1502006275.0,286046990.1,N
1502006276.0,286046990.1,N
1502006295.8,286046990.4,N
1502006315.6,286046991.4,N
1502006335.4,286046990.9,N
1502006355.3,286046989.7,N
1502006375.1,286046989.2,N
1502006395.8,286046989.3,N
